Preview of NWS' New Version of Forecast
This preview is not operational and should not be used for support decisions.

Regional Weather Roundup (RWR)

Issued by National Weather Service (NWS)

                            
000
ASUS43 KDTX 202301
RWRMI 
MICHIGAN HOURLY REGIONAL WEATHER ROUNDUP
NATIONAL WEATHER SERVICE DETROIT/PONTIAC MI
700 PM EDT SAT APR 20 2019

NOTE: "FAIR" INDICATES FEW OR NO CLOUDS BELOW 12,000 FEET WITH NO
SIGNIFICANT WEATHER AND/OR OBSTRUCTION TO VISIBILITY.

MIZ047>049-052>055-059>063-066>070-074>076-081>083-210000-
SOUTHEAST LOWER MICHIGAN
  
CITY           SKY/WX    TMP DP  RH WIND       PRES   REMARKS
ADRIAN         CLOUDY    43  40  89 N9        29.76R                  
ALMA           FAIR      53  38  56 E15       29.78R                  
ANN ARBOR      CLOUDY    43  40  89 NW8       29.73R                  
BAD AXE        LGT SNOW  40  38  93 N5        29.75R                  
CARO           CLOUDY    41  39  92 N7        29.76R                  
DETROIT CITY   CLOUDY    44  40  85 N5        29.72R                  
DETROIT        CLOUDY    44  39  82 N6        29.73R                  
FLINT          CLOUDY    42  40  92 N8        29.76S                  
GROSSE ILE     CLOUDY    44  41  89 N7        29.71S                  
HILLSDALE      LGT RAIN  42  37  84 NE6       29.74R                  
HOWELL         LGT RAIN  41  39  93 N5        29.74S                  

CITY           SKY/WX    TMP DP  RH WIND       PRES   REMARKS
JACKSON        LGT RAIN  42  41  96 N6        29.75S                  
LAMBERTVILLE   CLOUDY    44  42  93 N3        29.74R                  
LANSING        CLOUDY    43  40  89 NE9       29.78R                  
LAPEER         CLOUDY    42  41  97 N6        29.75R                  
MASON          LGT RAIN  42  40  93 NE5       29.76S                  
MONROE         CLOUDY    45  44  97 NW3       29.73R                  
PONTIAC        CLOUDY    42  40  92 N7        29.72R                  
PORT HOPE        N/A     39  36  89 N6        29.74R WCI  35          
TRI CITIES     CLOUDY    48  37  65 E17       29.77R                  
MIDLAND        FAIR      54  37  54 NE17G24   29.76S                  
TROY           CLOUDY    44  39  83 NW7       29.74R                  
SAGINAW HB     LGT RAIN  45  41  87 NE9       29.77S                  
$$
MIZ043>046-050>051-056>058-064>065-071>073-077>080-210000-
SOUTHWEST LOWER MICHIGAN
  
CITY           SKY/WX    TMP DP  RH WIND       PRES   REMARKS
BATTLE CREEK   CLOUDY    50  39  66 E12       29.76R                  
BENTON HARBOR  FAIR      46  27  47 N10G18    29.78R                  
BIG RAPIDS     FAIR      64  11  12 NE9       29.73R                  
COLDWATER      CLOUDY    46  45  97 NE8       29.76R                  
FREMONT        FAIR      62  20  20 N15       29.74R                  
HOLLAND        FAIR      56  29  35 NW9       29.75R                  
GRAND RAPIDS   FAIR      60  41  49 E15       29.73R                  
IONIA          FAIR      50  38  62 E16       29.76R                  
KALAMAZOO      FAIR      53  43  68 SE8       29.76R                  
LUDINGTON      FAIR      53  20  27 NW12      29.78R                  
MARSHALL       CLOUDY    44  44 100 NE5       29.76R                  
MOUNT PLEASANT FAIR      56  39  54 SE9       29.76R                  
MUSKEGON       FAIR      62  22  21 N13       29.75R                  
SOUTH HAVEN    FAIR      46  28  48 N9G20     29.77R                  
$$
MIZ016>042-210000-
NORTHERN LOWER MICHIGAN
  
CITY           SKY/WX    TMP DP  RH WIND       PRES   REMARKS
ALPENA         FAIR      58  19  22 N8        29.78R                  
BEAVER ISLAND  FAIR      55  13  19 NW5       29.79S                  
BELLAIRE       FAIR      58  16  18 N6        29.77S                  
CADILLAC       FAIR      60  20  21 N9        29.74S                  
CHARLEVOIX     FAIR      53  11  19 W5        29.81F                  
FRANKFORT      FAIR      56  20  25 N8        29.79S                  
GAYLORD        FAIR      58  33  39 N6        29.76F                  
HARBOR SPRINGS FAIR      46  26  45 CALM      29.78S                  
HOUGHTON LAKE  FAIR      62   6  11 N8G18     29.75R                  
MANISTEE       FAIR      48  30  49 NW10      29.78R                  
OSCODA         CLOUDY    55  26  33 NE14      29.75S                  
PELLSTON       FAIR      60   7  12 E6        29.78F                  
ROGERS CITY    FAIR      57  20  23 NW7       29.78S                  
TRAVERSE CITY  FAIR      55  26  32 N7        29.78S                  
$$
MIZ007>008-015-210000-
EASTERN UPPER MICHIGAN
  
CITY           SKY/WX    TMP DP  RH WIND       PRES   REMARKS
KINROSS        FAIR      60  20  21 N3        29.78S                  
MACKINAC ISLAN FAIR      54  13  19 SW3       29.78S                  
NEWBERRY       FAIR      61  14  16 W3        29.76F                  
S. S. MARIE    FAIR      61  21  21 W5        29.76F                  
MUNISING         N/A     62  15  16 S10G16    29.76S                  
$$
MIZ004>006-011>014-085-210000-
CENTRAL UPPER MICHIGAN
  
CITY           SKY/WX    TMP DP  RH WIND       PRES   REMARKS
MANISTIQUE     FAIR     N/A N/A N/A S6        29.78F                  
ESCANABA       FAIR      54   7  15 S7        29.79F                  
MENOMINEE      FAIR      54  29  38 E7        29.81S                  
SAWYER-GWINN   SUNNY     61  23  23 S15       29.74F                  
$$
MIZ001>003-009>011-084-210000-
WESTERN UPPER MICHIGAN
  
CITY           SKY/WX    TMP DP  RH WIND       PRES   REMARKS
IRON MOUNTAIN  FAIR      68  18  14 S10       29.73F                  
HOUGHTON       PTSUNNY   57  25  29 NE7       29.71S                  
COPPER HARBOR    N/A     53  23  31 SW8       29.71F                  
IRONWOOD       CLOUDY    67  35  30 SW7       29.71R                  
$$

ABBREVIATIONS USED IN REMARKS
   TC - TEMPERATURE IN CELSIUS
  WCI - WIND CHILL INDEX
   HX - HEAT INDEX
  VSB - VISIBILITY